Time,TemperatureF,DewpointF,PressureIn,WindDirection,WindDirectionDegrees,WindSpeedMPH,WindSpeedGustMPH,Humidity,HourlyPrecipIn,Conditions,Clouds,dailyrainin,SoftwareType,DateUTC
2013-07-04 00:01:00,75.7,75.0,30.25,ENE,70,0.0,0.0,99,0.00,,,0.00,weatherlink.com 1.10,2013-07-04 04:01:00,
2013-07-04 00:16:00,75.5,75.0,30.24,ENE,70,0.0,0.0,99,0.00,,,0.00,weatherlink.com 1.10,2013-07-04 04:16:00,
2013-07-04 00:31:00,75.5,75.0,30.24,ENE,70,0.0,0.0,99,0.00,,,0.00,weatherlink.com 1.10,2013-07-04 04:31:00,
2013-07-04 00:46:00,75.4,75.0,30.24,ENE,70,0.0,0.0,99,0.00,,,0.00,weatherlink.com 1.10,2013-07-04 04:46:00,
2013-07-04 01:01:00,75.4,75.0,30.24,ENE,70,0.0,0.0,99,0.00,,,0.00,weatherlink.com 1.10,2013-07-04 05:01:00,
2013-07-04 01:16:00,75.4,75.0,30.24,ENE,70,0.0,0.0,99,0.00,,,0.00,weatherlink.com 1.10,2013-07-04 05:16:00,
2013-07-04 01:31:00,75.8,76.0,30.24,ENE,70,0.0,0.0,99,0.00,,,0.00,weatherlink.com 1.10,2013-07-04 05:31:00,
2013-07-04 01:46:00,76.1,76.0,30.23,East,99,0.0,0.0,99,0.00,,,0.00,weatherlink.com 1.10,2013-07-04 05:46:00,
2013-07-04 02:02:00,76.2,76.0,30.23,ESE,122,0.0,0.0,99,0.00,,,0.00,weatherlink.com 1.10,2013-07-04 06:02:00,
2013-07-04 02:17:00,76.2,76.0,30.22,ESE,122,0.0,0.0,99,0.00,,,0.00,weatherlink.com 1.10,2013-07-04 06:17:00,
2013-07-04 02:32:00,75.9,76.0,30.22,ESE,121,0.0,0.0,99,0.00,,,0.00,weatherlink.com 1.10,2013-07-04 06:32:00,
2013-07-04 02:47:00,75.8,76.0,30.22,ESE,121,0.0,0.0,99,0.00,,,0.00,weatherlink.com 1.10,2013-07-04 06:47:00,
2013-07-04 03:02:00,75.7,75.0,30.22,ESE,120,0.0,0.0,99,0.00,,,0.00,weatherlink.com 1.10,2013-07-04 07:02:00,
2013-07-04 03:17:00,75.3,75.0,30.21,ESE,120,0.0,0.0,99,0.00,,,0.00,weatherlink.com 1.10,2013-07-04 07:17:00,
2013-07-04 03:32:00,75.2,75.0,30.21,ESE,121,0.0,0.0,99,0.00,,,0.00,weatherlink.com 1.10,2013-07-04 07:32:00,
2013-07-04 03:47:00,75.0,75.0,30.21,ESE,120,0.0,0.0,99,0.00,,,0.00,weatherlink.com 1.10,2013-07-04 07:47:00,
2013-07-04 04:03:00,74.9,75.0,30.20,ESE,120,0.0,0.0,99,0.00,,,0.00,weatherlink.com 1.10,2013-07-04 08:03:00,
2013-07-04 04:17:00,75.0,75.0,30.21,ESE,121,0.0,0.0,99,0.00,,,0.00,weatherlink.com 1.10,2013-07-04 08:17:00,
2013-07-04 04:32:00,74.9,75.0,30.21,ESE,120,0.0,0.0,99,0.00,,,0.00,weatherlink.com 1.10,2013-07-04 08:32:00,
2013-07-04 04:47:00,74.9,75.0,30.21,SSE,166,0.0,0.0,99,0.00,,,0.00,weatherlink.com 1.10,2013-07-04 08:47:00,
2013-07-04 05:02:00,75.2,75.0,30.21,SSE,165,0.0,0.0,100,0.00,,,0.00,weatherlink.com 1.10,2013-07-04 09:02:00,
2013-07-04 05:17:00,75.4,75.0,30.21,SSE,148,0.0,0.0,100,0.00,,,0.00,weatherlink.com 1.10,2013-07-04 09:17:00,
2013-07-04 05:32:00,75.4,75.0,30.22,SSE,148,0.0,0.0,100,0.00,,,0.00,weatherlink.com 1.10,2013-07-04 09:32:00,
2013-07-04 05:47:00,75.5,76.0,30.22,SSE,148,0.0,0.0,100,0.00,,,0.00,weatherlink.com 1.10,2013-07-04 09:47:00,
2013-07-04 06:02:00,75.5,75.0,30.23,SSE,148,0.0,0.0,99,0.00,,,0.00,weatherlink.com 1.10,2013-07-04 10:02:00,
2013-07-04 06:17:00,75.4,75.0,30.23,SSE,148,0.0,0.0,99,0.00,,,0.00,weatherlink.com 1.10,2013-07-04 10:17:00,
2013-07-04 06:32:00,75.5,75.0,30.23,SSE,148,0.0,0.0,99,0.00,,,0.00,weatherlink.com 1.10,2013-07-04 10:32:00,
2013-07-04 06:47:00,75.6,75.0,30.23,SSE,148,0.0,0.0,99,0.00,,,0.00,weatherlink.com 1.10,2013-07-04 10:47:00,
2013-07-04 07:02:00,75.7,75.0,30.23,SSE,148,0.0,0.0,99,0.00,,,0.00,weatherlink.com 1.10,2013-07-04 11:02:00,
2013-07-04 07:17:00,76.3,76.0,30.23,South,172,0.0,0.0,99,0.00,,,0.00,weatherlink.com 1.10,2013-07-04 11:17:00,
2013-07-04 07:32:00,76.9,76.0,30.24,SE,139,0.0,0.0,98,0.00,,,0.00,weatherlink.com 1.10,2013-07-04 11:32:00,
2013-07-04 07:47:00,77.5,77.0,30.24,SSW,207,0.0,0.0,98,0.00,,,0.00,weatherlink.com 1.10,2013-07-04 11:47:00,
2013-07-04 08:02:00,80.2,78.0,30.24,SE,137,0.0,0.0,93,0.00,,,0.00,weatherlink.com 1.10,2013-07-04 12:02:00,
2013-07-04 08:17:00,81.0,78.0,30.25,SSE,157,0.0,0.0,91,0.00,,,0.00,weatherlink.com 1.10,2013-07-04 12:17:00,
2013-07-04 08:32:00,81.7,78.0,30.25,ENE,70,0.0,0.0,88,0.00,,,0.00,weatherlink.com 1.10,2013-07-04 12:32:00,
2013-07-04 08:47:00,80.7,78.0,30.25,SSE,165,0.0,0.0,92,0.00,,,0.00,weatherlink.com 1.10,2013-07-04 12:47:00,
2013-07-04 09:02:00,82.7,78.0,30.25,ESE,122,0.0,0.0,86,0.00,,,0.00,weatherlink.com 1.10,2013-07-04 13:02:00,
2013-07-04 09:17:00,81.9,77.0,30.25,SE,146,1.0,4.0,85,0.00,,,0.00,weatherlink.com 1.10,2013-07-04 13:17:00,
2013-07-04 09:32:00,81.1,77.0,30.25,SE,127,0.0,2.0,87,0.00,,,0.00,weatherlink.com 1.10,2013-07-04 13:32:00,
2013-07-04 09:47:00,83.6,78.0,30.25,SE,131,1.0,5.0,83,0.00,,,0.00,weatherlink.com 1.10,2013-07-04 13:47:00,
2013-07-04 10:02:00,83.0,77.0,30.25,SSE,152,0.0,4.0,82,0.00,,,0.00,weatherlink.com 1.10,2013-07-04 14:02:00,
2013-07-04 10:17:00,85.2,79.0,30.25,South,176,0.0,4.0,82,0.00,,,0.00,weatherlink.com 1.10,2013-07-04 14:17:00,
2013-07-04 10:33:00,86.7,78.0,30.25,NW,314,0.0,5.0,76,0.00,,,0.00,weatherlink.com 1.10,2013-07-04 14:33:00,
2013-07-04 10:47:00,86.4,78.0,30.25,SSE,163,2.0,5.0,75,0.00,,,0.00,weatherlink.com 1.10,2013-07-04 14:47:00,
2013-07-04 11:02:00,85.7,78.0,30.25,ESE,104,3.0,5.0,78,0.00,,,0.00,weatherlink.com 1.10,2013-07-04 15:02:00,
2013-07-04 11:17:00,85.1,77.0,30.25,SSE,156,1.0,3.0,77,0.00,,,0.00,weatherlink.com 1.10,2013-07-04 15:17:00,
2013-07-04 11:32:00,86.8,78.0,30.25,ESE,122,1.0,4.0,75,0.00,,,0.00,weatherlink.com 1.10,2013-07-04 15:32:00,
2013-07-04 11:47:00,86.7,77.0,30.25,East,95,0.0,4.0,73,0.00,,,0.00,weatherlink.com 1.10,2013-07-04 15:47:00,
2013-07-04 12:02:00,86.3,79.0,30.25,WNW,302,1.0,2.0,79,0.04,,,0.04,weatherlink.com 1.10,2013-07-04 16:02:00,
2013-07-04 12:17:00,83.6,80.0,30.25,NE,39,0.0,3.0,88,0.05,,,0.05,weatherlink.com 1.10,2013-07-04 16:17:00,
2013-07-04 12:33:00,82.4,79.0,30.25,SE,145,0.0,3.0,89,0.05,,,0.05,weatherlink.com 1.10,2013-07-04 16:33:00,
2013-07-04 12:48:00,84.1,79.0,30.25,SSE,152,1.0,3.0,84,0.05,,,0.05,weatherlink.com 1.10,2013-07-04 16:48:00,
2013-07-04 13:03:00,83.9,79.0,30.25,ESE,115,0.0,6.0,84,0.01,,,0.05,weatherlink.com 1.10,2013-07-04 17:03:00,
2013-07-04 13:18:00,83.1,79.0,30.24,SE,145,1.0,4.0,86,0.00,,,0.05,weatherlink.com 1.10,2013-07-04 17:18:00,
2013-07-04 13:33:00,83.8,80.0,30.24,WSW,242,0.0,2.0,87,0.00,,,0.05,weatherlink.com 1.10,2013-07-04 17:33:00,
2013-07-04 13:48:00,85.0,80.0,30.24,SE,137,0.0,3.0,84,0.00,,,0.05,weatherlink.com 1.10,2013-07-04 17:48:00,
2013-07-04 14:03:00,86.5,79.0,30.24,SSW,204,0.0,8.0,78,0.00,,,0.05,weatherlink.com 1.10,2013-07-04 18:03:00,
2013-07-04 14:18:00,87.4,80.0,30.23,SE,134,0.0,6.0,79,0.00,,,0.05,weatherlink.com 1.10,2013-07-04 18:18:00,
2013-07-04 14:33:00,86.9,79.0,30.23,SSE,155,2.0,5.0,76,0.00,,,0.05,weatherlink.com 1.10,2013-07-04 18:33:00,
2013-07-04 14:48:00,87.6,79.0,30.22,SSE,153,0.0,5.0,75,0.00,,,0.05,weatherlink.com 1.10,2013-07-04 18:48:00,
2013-07-04 15:03:00,86.5,78.0,30.21,SSE,153,0.0,5.0,76,0.00,,,0.05,weatherlink.com 1.10,2013-07-04 19:03:00,
2013-07-04 15:18:00,87.2,78.0,30.21,ESE,120,2.0,5.0,73,0.00,,,0.05,weatherlink.com 1.10,2013-07-04 19:18:00,
2013-07-04 15:33:00,86.3,78.0,30.21,SSE,160,1.0,6.0,75,0.00,,,0.05,weatherlink.com 1.10,2013-07-04 19:33:00,
2013-07-04 15:48:00,85.8,78.0,30.21,East,98,2.0,5.0,77,0.00,,,0.05,weatherlink.com 1.10,2013-07-04 19:48:00,
2013-07-04 16:03:00,85.4,77.0,30.20,SSE,155,0.0,6.0,77,0.00,,,0.05,weatherlink.com 1.10,2013-07-04 20:03:00,
2013-07-04 16:18:00,84.5,77.0,30.21,ESE,108,1.0,5.0,78,0.00,,,0.05,weatherlink.com 1.10,2013-07-04 20:18:00,
2013-07-04 16:33:00,83.2,77.0,30.21,ESE,102,1.0,6.0,81,0.00,,,0.05,weatherlink.com 1.10,2013-07-04 20:33:00,
2013-07-04 16:48:00,83.3,77.0,30.20,SE,144,0.0,4.0,82,0.00,,,0.05,weatherlink.com 1.10,2013-07-04 20:48:00,
2013-07-04 17:03:00,83.8,77.0,30.20,West,277,0.0,2.0,81,0.00,,,0.05,weatherlink.com 1.10,2013-07-04 21:03:00,
2013-07-04 17:18:00,82.9,77.0,30.20,SSE,158,0.0,3.0,82,0.00,,,0.05,weatherlink.com 1.10,2013-07-04 21:18:00,
2013-07-04 17:33:00,82.6,77.0,30.20,SSE,158,2.0,3.0,82,0.00,,,0.05,weatherlink.com 1.10,2013-07-04 21:33:00,
2013-07-04 17:48:00,82.9,77.0,30.20,SE,139,0.0,1.0,83,0.00,,,0.05,weatherlink.com 1.10,2013-07-04 21:48:00,
2013-07-04 18:03:00,82.5,77.0,30.20,ESE,108,0.0,1.0,84,0.00,,,0.05,weatherlink.com 1.10,2013-07-04 22:03:00,
2013-07-04 18:18:00,82.1,77.0,30.21,SE,128,1.0,4.0,84,0.00,,,0.05,weatherlink.com 1.10,2013-07-04 22:18:00,
2013-07-04 18:33:00,81.4,77.0,30.21,SE,131,0.0,4.0,85,0.00,,,0.05,weatherlink.com 1.10,2013-07-04 22:33:00,
2013-07-04 18:48:00,81.4,77.0,30.21,ENE,60,1.0,4.0,86,0.00,,,0.05,weatherlink.com 1.10,2013-07-04 22:48:00,
2013-07-04 19:03:00,80.6,77.0,30.21,SE,132,0.0,2.0,89,0.00,,,0.05,weatherlink.com 1.10,2013-07-04 23:03:00,
2013-07-04 19:18:00,80.2,77.0,30.21,SE,140,0.0,2.0,90,0.00,,,0.05,weatherlink.com 1.10,2013-07-04 23:18:00,
2013-07-04 19:33:00,79.9,77.0,30.22,SE,145,0.0,2.0,90,0.00,,,0.05,weatherlink.com 1.10,2013-07-04 23:33:00,
2013-07-04 19:48:00,79.6,77.0,30.22,SE,125,0.0,1.0,90,0.00,,,0.05,weatherlink.com 1.10,2013-07-04 23:48:00,
2013-07-04 20:03:00,79.3,76.0,30.22,East,86,0.0,2.0,90,0.00,,,0.05,weatherlink.com 1.10,2013-07-05 00:03:00,
2013-07-04 20:18:00,78.8,76.0,30.23,SE,128,0.0,2.0,91,0.00,,,0.05,weatherlink.com 1.10,2013-07-05 00:18:00,
2013-07-04 20:33:00,78.2,76.0,30.23,SE,128,0.0,0.0,93,0.00,,,0.05,weatherlink.com 1.10,2013-07-05 00:33:00,
2013-07-04 20:48:00,77.7,76.0,30.23,SE,128,0.0,0.0,94,0.00,,,0.05,weatherlink.com 1.10,2013-07-05 00:48:00,
2013-07-04 21:03:00,77.2,76.0,30.24,SE,128,0.0,0.0,95,0.00,,,0.05,weatherlink.com 1.10,2013-07-05 01:03:00,
2013-07-04 21:18:00,76.8,76.0,30.24,SE,128,0.0,0.0,96,0.00,,,0.05,weatherlink.com 1.10,2013-07-05 01:18:00,
2013-07-04 21:33:00,76.6,75.0,30.24,SE,128,0.0,0.0,96,0.00,,,0.05,weatherlink.com 1.10,2013-07-05 01:33:00,
2013-07-04 21:48:00,76.7,76.0,30.24,SE,128,0.0,1.0,96,0.00,,,0.05,weatherlink.com 1.10,2013-07-05 01:48:00,
2013-07-04 22:03:00,76.7,76.0,30.25,SE,128,0.0,0.0,96,0.00,,,0.05,weatherlink.com 1.10,2013-07-05 02:03:00,
2013-07-04 22:18:00,76.5,76.0,30.25,SE,128,0.0,0.0,97,0.00,,,0.05,weatherlink.com 1.10,2013-07-05 02:18:00,
2013-07-04 22:33:00,76.4,76.0,30.26,SE,128,0.0,0.0,97,0.00,,,0.05,weatherlink.com 1.10,2013-07-05 02:33:00,
2013-07-04 22:48:00,76.2,75.0,30.25,SE,128,0.0,0.0,97,0.00,,,0.05,weatherlink.com 1.10,2013-07-05 02:48:00,
2013-07-04 23:03:00,76.1,75.0,30.25,WNW,297,0.0,1.0,97,0.01,,,0.06,weatherlink.com 1.10,2013-07-05 03:03:00,
2013-07-04 23:18:00,75.9,75.0,30.25,WNW,299,0.0,0.0,97,0.01,,,0.06,weatherlink.com 1.10,2013-07-05 03:18:00,
2013-07-04 23:33:00,75.7,75.0,30.25,WNW,299,0.0,1.0,98,0.01,,,0.06,weatherlink.com 1.10,2013-07-05 03:33:00,
2013-07-04 23:48:00,75.5,75.0,30.25,WNW,299,0.0,0.0,98,0.01,,,0.06,weatherlink.com 1.10,2013-07-05 03:48:00,